New Philadelphia, OH

2:10 AM EDT on September 29, 2016 (GMT -0400)
Clever

Weather History for KPHD - October, 2011

Change the Weather History Date:

Monday, October 31, 2011

  Actual Average Record
Temperature  
Mean Temperature 42 °F 48 °F  
Max Temperature 51 °F 59 °F 77 °F (1971)
Min Temperature 33 °F 37 °F 18 °F (1988)
Degree Days  
Heating Degree Days 24 17  
Month to date heating degree days 392  
Since 1 July heating degree days 499  
Cooling Degree Days 0 0  
Month to date cooling degree days 9  
Year to date cooling degree days 697  
Moisture  
Dew Point 35 °F    
Average Humidity 81    
Maximum Humidity 93    
Minimum Humidity 56    
Precipitation  
Precipitation 0.02 in 0.08 in 0.68 in (1976)
Month to date precipitation 2.75  
Year to date precipitation 32.96  
Sea Level Pressure  
Sea Level Pressure 30.19 in    
Wind  
Wind Speed 3 mph (South)    
Max Wind Speed 9 mph    
Max Gust Speed 18 mph    
Visibility 8 miles    
Events Rain    
T = Trace of Precipitation, MM = Missing Value Source: NWS Daily Summary

Daily Weather History Graph

Daily Weather History Graph

Search for Another Location

Airport or City:

Trip Planner

Search our weather history database for the weather conditions in past years. The results will help you decide how hot, cold, wet, or windy it might be!

Date:

Astronomy

Oct. 31, 2011 Rise Set
Actual Time 7:54 AM EDT 6:23 PM EDT
Civil Twilight 7:25 AM EDT 6:52 PM EDT
Nautical Twilight 6:53 AM EDT 7:24 PM EDT
Astronomical Twilight 6:21 AM EDT 7:56 PM EDT
Moon 1:00 PM EDT (10/31) 10:57 PM EDT (10/31)
Length of Visible Light 11h 26m
Length of Day
10h 29m
Waxing Crescent, 29% of the Moon is Illuminated
Oct 31
Waxing Crescent
Nov 2
First Quarter
Nov 10
Full
Nov 18
Last Quarter
Nov 25
New

Hourly Weather History & Observations

Time (EDT) Temp. Windchill Dew Point Humidity Pressure Visibility Wind Dir Wind Speed Gust Speed Precip Events Conditions
12:53 AM 39.0 °F 34.8 °F 34.0 °F 82% 30.23 in 10.0 mi SSE 5.8 mph - N/A   Clear
1:53 AM 37.0 °F - 33.1 °F 86% 30.23 in 10.0 mi Calm Calm - N/A   Clear
2:53 AM 34.0 °F - 30.9 °F 89% 30.22 in 7.0 mi Calm Calm - N/A   Clear
3:53 AM 34.0 °F - 30.9 °F 89% 30.19 in 7.0 mi Calm Calm - N/A   Clear
4:53 AM 35.1 °F - 32.0 °F 89% 30.18 in 6.0 mi Calm Calm - N/A   Clear
5:53 AM 37.0 °F - 34.0 °F 89% 30.18 in 8.0 mi Calm Calm - N/A   Clear
6:53 AM 37.9 °F - 33.1 °F 83% 30.18 in 10.0 mi Calm Calm - N/A   Clear
7:53 AM 39.0 °F - 33.1 °F 79% 30.17 in 10.0 mi Calm Calm - N/A   Clear
8:53 AM 39.9 °F 36.7 °F 33.1 °F 77% 30.17 in 10.0 mi SSE 4.6 mph - N/A   Overcast
9:53 AM 43.0 °F 41.3 °F 33.1 °F 68% 30.18 in 10.0 mi South 3.5 mph - N/A   Overcast
10:53 AM 46.9 °F - 32.0 °F 56% 30.17 in 10.0 mi South 6.9 mph - N/A   Overcast
11:53 AM 48.0 °F - 33.1 °F 56% 30.17 in 10.0 mi SSW 6.9 mph - N/A   Overcast
12:53 PM 48.9 °F - 35.1 °F 59% 30.15 in 10.0 mi SSW 6.9 mph - 0.00 in Rain Light Rain
1:53 PM 48.0 °F - 36.0 °F 63% 30.14 in 10.0 mi SSW 4.6 mph - 0.00 in Rain Light Rain
2:53 PM 50.0 °F - 35.1 °F 57% 30.14 in 10.0 mi SW 9.2 mph 18.4 mph 0.00 in   Overcast
3:53 PM 46.0 °F 44.8 °F 37.9 °F 73% 30.15 in 10.0 mi WSW 3.5 mph - 0.01 in Rain Light Rain
4:53 PM 46.0 °F - 39.9 °F 79% 30.16 in 10.0 mi Calm Calm - 0.01 in   Overcast
6:20 PM 44.6 °F - 39.2 °F 81% 30.16 in 10.0 mi Calm Calm - N/A   Mostly Cloudy
6:33 PM 44.6 °F 43.1 °F 37.4 °F 76% 30.16 in 10.0 mi South 3.5 mph - N/A   Overcast
6:53 PM 44.1 °F - 37.9 °F 79% 30.19 in 10.0 mi Calm Calm - N/A   Mostly Cloudy
8:19 PM 42.8 °F 40.1 °F 39.2 °F 87% 30.20 in 10.0 mi South 4.6 mph - N/A   Overcast
8:30 PM 42.8 °F 40.1 °F 37.4 °F 81% 30.20 in 10.0 mi SSE 4.6 mph - N/A   Overcast
8:53 PM 42.1 °F 37.1 °F 37.9 °F 85% 30.21 in 9.0 mi SSE 8.1 mph - N/A   Partly Cloudy
9:53 PM 37.9 °F - 36.0 °F 93% 30.23 in 10.0 mi Calm Calm - N/A   Partly Cloudy
10:48 PM 35.6 °F - 33.8 °F 93% 30.22 in 1.5 mi Calm Calm - N/A   Clear
10:53 PM 36.0 °F - 34.0 °F 93% 30.24 in 1.5 mi Calm Calm - N/A   Clear
10:59 PM 35.6 °F - 33.8 °F 93% 30.23 in 3.0 mi Calm Calm - N/A   Clear
11:21 PM 35.6 °F - 33.8 °F 93% 30.23 in 1.5 mi Calm Calm - N/A   Clear
11:25 PM 35.6 °F - 33.8 °F 93% 30.22 in 0.8 mi Calm Calm - N/A   Clear
11:38 PM 33.8 °F 29.6 °F 32.0 °F 93% 30.22 in 1.2 mi SE 4.6 mph - N/A   Clear
11:44 PM 33.8 °F - 32.0 °F 93% 30.22 in 3.0 mi Calm Calm - N/A   Clear
11:57 PM 35.6 °F - 33.8 °F 93% 30.22 in 2.5 mi Calm Calm - N/A   Partly Cloudy